Location: Chavannes
(47.1090°N, 0.2226°W)
Time: 05:11:45
(UTC+00:00)

CENTAUR R/B - Pass Details

Date: 16 October 2021
Orbit: 728 x 1459 km, 63.4° (Epoch: 26 November)

Event Time Altitude Azimuth Distance (km) Brightness Sun altitude
Rises 20:43:47 0° 311° (NW) 3,919 6.6 -35.9°
Reaches altitude 10° 20:46:48 10° 323° (NW) 3,077 5.8 -36.4°
Maximum altitude 20:53:09 28° 20° (NNE) 2,209 4.3 -37.3°
Enters shadow 20:53:17 28° 22° (NNE) 2,213 4.3 -37.3°
